Year,Month,Day,Hour,Minute,Value (Times are PST for temperature in C)
2020,01,25,00,00,7.80
2020,01,25,00,01,7.80
2020,01,25,00,02,7.80
2020,01,25,00,03,7.80
2020,01,25,00,04,7.80
2020,01,25,00,05,7.80
2020,01,25,00,06,7.80
2020,01,25,00,07,7.80
2020,01,25,00,08,7.80
2020,01,25,00,09,7.80
2020,01,25,00,10,7.80
2020,01,25,00,11,7.80
2020,01,25,00,12,7.80
2020,01,25,00,13,7.80
2020,01,25,00,14,7.80
2020,01,25,00,15,7.80
2020,01,25,00,16,7.80
2020,01,25,00,17,7.80
2020,01,25,00,18,7.80
2020,01,25,00,19,7.80
2020,01,25,00,20,7.80
2020,01,25,00,21,7.80
2020,01,25,00,22,7.80
2020,01,25,00,23,7.80
2020,01,25,00,24,7.80
2020,01,25,00,25,7.80
2020,01,25,00,26,7.80
2020,01,25,00,27,7.80
2020,01,25,00,28,7.80
2020,01,25,00,29,7.80
2020,01,25,00,30,7.80
2020,01,25,00,31,7.80
2020,01,25,00,32,7.80
2020,01,25,00,33,7.80
2020,01,25,00,34,7.80
2020,01,25,00,35,7.80
2020,01,25,00,36,7.80
2020,01,25,09,05,7.90
2020,01,25,09,06,7.90
2020,01,25,09,07,7.90
2020,01,25,09,08,7.90
2020,01,25,09,09,7.90
2020,01,25,09,10,7.90
2020,01,25,09,11,7.90
2020,01,25,09,12,7.90
2020,01,25,09,13,7.90
2020,01,25,09,14,7.90
2020,01,25,09,15,7.90
2020,01,25,09,16,8.00
2020,01,25,09,17,8.00
2020,01,25,09,18,8.00
2020,01,25,09,19,8.00
2020,01,25,09,20,8.00
2020,01,25,09,21,8.00
2020,01,25,09,22,8.10
2020,01,25,09,23,8.10
2020,01,25,09,24,8.10
2020,01,25,09,25,8.10
2020,01,25,09,26,8.20
2020,01,25,09,27,8.20
2020,01,25,09,28,8.20
2020,01,25,09,29,8.20
2020,01,25,09,30,8.20
2020,01,25,09,31,8.20
2020,01,25,09,32,8.20
2020,01,25,09,33,8.20
2020,01,25,09,34,8.20
2020,01,25,09,35,8.20
2020,01,25,09,36,8.20
2020,01,25,09,37,8.20
2020,01,25,09,38,8.20
2020,01,25,09,39,8.20
2020,01,25,09,40,8.20
2020,01,25,09,41,8.20
2020,01,25,09,42,8.30
2020,01,25,09,43,8.30
2020,01,25,09,44,8.30
2020,01,25,09,45,8.30
2020,01,25,09,46,8.30
2020,01,25,09,47,8.30
2020,01,25,09,48,8.30
2020,01,25,09,49,8.30
2020,01,25,09,50,8.30
2020,01,25,09,51,8.30
2020,01,25,09,52,8.30
2020,01,25,09,53,8.30
2020,01,25,09,54,8.30
2020,01,25,09,55,8.30
2020,01,25,09,56,8.30
2020,01,25,09,57,8.30
2020,01,25,09,58,8.30
2020,01,25,09,59,8.30
2020,01,25,10,00,8.30
2020,01,25,10,01,8.30
2020,01,25,10,02,8.30
2020,01,25,10,03,8.30
2020,01,25,10,04,8.30
2020,01,25,10,05,8.30
2020,01,25,10,06,8.30
2020,01,25,10,07,8.30
2020,01,25,10,08,8.30
2020,01,25,10,09,8.30
2020,01,25,10,10,8.30
2020,01,25,10,11,8.30
2020,01,25,10,12,8.30
2020,01,25,10,13,8.30
2020,01,25,10,14,8.30
2020,01,25,10,15,8.30
2020,01,25,10,16,8.40
2020,01,25,10,17,8.30
2020,01,25,10,18,8.30
2020,01,25,10,19,8.30
2020,01,25,10,20,8.30
2020,01,25,10,21,8.40
2020,01,25,10,22,8.40
2020,01,25,10,23,8.40
2020,01,25,10,24,8.40
2020,01,25,10,25,8.40
2020,01,25,10,26,8.50
2020,01,25,10,27,8.50
2020,01,25,10,28,8.50
2020,01,25,10,29,8.50
2020,01,25,10,30,8.60
2020,01,25,10,31,8.60
2020,01,25,10,32,8.70
2020,01,25,10,33,8.70
2020,01,25,10,34,8.70
2020,01,25,10,35,8.70
2020,01,25,10,36,8.70
2020,01,25,10,37,8.70
2020,01,25,10,38,8.70
2020,01,25,10,39,8.80
2020,01,25,10,40,8.80
2020,01,25,10,41,8.80
2020,01,25,10,42,8.80
2020,01,25,10,43,8.70
2020,01,25,10,44,8.70
2020,01,25,10,45,8.70
2020,01,25,10,46,8.70
2020,01,25,10,47,8.70
2020,01,25,10,48,8.80
2020,01,25,10,49,8.80
2020,01,25,10,50,8.90
2020,01,25,10,51,9.00
2020,01,25,10,52,9.00
2020,01,25,10,53,8.90
2020,01,25,10,54,8.80
2020,01,25,10,55,8.70
2020,01,25,10,56,8.70
2020,01,25,10,57,8.60
2020,01,25,10,58,8.60
2020,01,25,10,59,8.50
2020,01,25,11,00,8.50
2020,01,25,11,01,8.50
2020,01,25,11,02,8.50
2020,01,25,11,03,8.50
2020,01,25,11,04,8.50
2020,01,25,11,05,8.50
2020,01,25,11,06,8.50
2020,01,25,11,07,8.60
2020,01,25,11,08,8.60
2020,01,25,11,09,8.60
2020,01,25,11,10,8.70
2020,01,25,11,11,8.70
2020,01,25,11,12,8.70
2020,01,25,11,13,8.70
2020,01,25,11,14,8.70
2020,01,25,11,15,8.70
2020,01,25,11,16,8.70
2020,01,25,11,17,8.70
2020,01,25,11,18,8.70
2020,01,25,11,19,8.70
2020,01,25,11,20,8.70
2020,01,25,11,21,8.70
2020,01,25,11,22,8.70
2020,01,25,11,23,8.60
2020,01,25,11,24,8.60
2020,01,25,11,25,8.50
2020,01,25,11,26,8.50
2020,01,25,11,27,8.50
2020,01,25,11,28,8.50
2020,01,25,11,29,8.50
2020,01,25,11,30,8.50
2020,01,25,11,31,8.50
2020,01,25,11,32,8.60
2020,01,25,11,33,8.60
2020,01,25,11,34,8.60
2020,01,25,11,35,8.60
2020,01,25,11,36,8.60
2020,01,25,11,37,8.60
2020,01,25,11,38,8.50
2020,01,25,11,39,8.50
2020,01,25,11,40,8.50
2020,01,25,11,41,8.60
2020,01,25,11,42,8.60
2020,01,25,11,43,8.60
2020,01,25,11,44,8.60
2020,01,25,11,45,8.70
2020,01,25,11,46,8.70
2020,01,25,11,47,8.70
2020,01,25,11,48,8.70
2020,01,25,11,49,8.70
2020,01,25,11,50,8.70
2020,01,25,11,51,8.70
2020,01,25,11,52,8.70
2020,01,25,11,53,8.70
2020,01,25,11,54,8.70
2020,01,25,11,55,8.70
2020,01,25,11,56,8.80
2020,01,25,11,57,8.80
2020,01,25,11,58,8.80
2020,01,25,11,59,8.90
2020,01,25,12,00,8.90
2020,01,25,12,01,8.90
2020,01,25,12,02,8.90
2020,01,25,12,03,9.00
2020,01,25,12,04,9.00
2020,01,25,12,05,9.00
2020,01,25,12,06,9.00
2020,01,25,12,07,9.00
2020,01,25,12,08,9.00
2020,01,25,12,09,9.00
2020,01,25,12,10,9.00
2020,01,25,12,11,9.00
2020,01,25,12,12,9.00
2020,01,25,12,13,9.00
2020,01,25,12,14,9.00
2020,01,25,12,15,9.00
2020,01,25,12,16,9.00
2020,01,25,12,17,9.00
2020,01,25,12,18,9.00
2020,01,25,12,19,9.00
2020,01,25,12,20,9.00
2020,01,25,12,21,9.00
2020,01,25,12,22,9.00
2020,01,25,12,23,9.00
2020,01,25,12,24,9.00
2020,01,25,12,25,9.00
2020,01,25,12,26,9.00
2020,01,25,12,27,9.00
2020,01,25,12,28,9.00
2020,01,25,12,29,9.00
2020,01,25,12,30,9.00
2020,01,25,12,31,9.00
2020,01,25,12,32,9.00
2020,01,25,12,33,9.00
2020,01,25,12,34,9.00
2020,01,25,12,35,8.90
2020,01,25,12,36,8.90
2020,01,25,12,37,8.90
2020,01,25,12,38,8.90
2020,01,25,12,39,8.90
2020,01,25,12,40,8.90
2020,01,25,12,41,8.90
2020,01,25,12,42,8.90
2020,01,25,12,43,8.90
2020,01,25,12,44,8.90
2020,01,25,12,45,9.00
2020,01,25,12,46,9.00
2020,01,25,12,47,8.90
2020,01,25,12,48,8.90
2020,01,25,12,49,8.90
2020,01,25,12,50,8.90
2020,01,25,12,51,8.90
2020,01,25,12,52,8.90
2020,01,25,12,53,8.90
2020,01,25,12,54,8.90
2020,01,25,12,55,8.90
2020,01,25,12,56,8.90
2020,01,25,12,57,8.90
2020,01,25,12,58,8.90
2020,01,25,12,59,8.90
2020,01,25,13,00,8.90
2020,01,25,13,01,8.90
2020,01,25,13,02,8.90
2020,01,25,13,03,8.90
2020,01,25,13,04,9.00
2020,01,25,13,05,9.00
2020,01,25,13,06,9.00
2020,01,25,13,07,8.90
2020,01,25,13,08,8.90
2020,01,25,13,09,8.90
2020,01,25,13,10,9.00
2020,01,25,13,11,9.00
2020,01,25,13,12,9.00
2020,01,25,13,13,9.00
2020,01,25,13,14,9.00
2020,01,25,13,15,9.00
2020,01,25,13,16,9.00
2020,01,25,13,17,9.00
2020,01,25,13,18,9.00
2020,01,25,13,19,9.00
2020,01,25,13,20,9.00
2020,01,25,13,21,9.00
2020,01,25,13,22,9.10
2020,01,25,13,23,9.10
2020,01,25,13,24,9.10
2020,01,25,13,25,9.10
2020,01,25,13,26,9.20
2020,01,25,13,27,9.20
2020,01,25,13,28,9.20
2020,01,25,13,29,9.20
2020,01,25,13,30,9.20
2020,01,25,13,31,9.20
2020,01,25,13,32,9.20
2020,01,25,13,33,9.20
2020,01,25,13,34,9.20
2020,01,25,13,35,9.20
2020,01,25,13,36,9.20
2020,01,25,13,37,9.20
2020,01,25,13,38,9.30
2020,01,25,13,39,9.30
2020,01,25,13,40,9.30
2020,01,25,13,41,9.30
2020,01,25,13,42,9.30
2020,01,25,13,43,9.30
2020,01,25,13,44,9.30
2020,01,25,13,45,9.30
2020,01,25,13,46,9.30
2020,01,25,13,47,9.30
2020,01,25,13,48,9.30
2020,01,25,13,49,9.40
2020,01,25,13,50,9.40
2020,01,25,13,51,9.40
2020,01,25,13,52,9.30
2020,01,25,13,53,9.30
2020,01,25,13,54,9.30
2020,01,25,13,55,9.40
2020,01,25,13,56,9.40
2020,01,25,13,57,9.40
2020,01,25,13,58,9.40
2020,01,25,13,59,9.30
2020,01,25,14,00,9.30
2020,01,25,14,01,9.30
2020,01,25,14,02,9.30
2020,01,25,14,03,9.30
2020,01,25,14,04,9.30
2020,01,25,14,05,9.30
2020,01,25,14,06,9.30
2020,01,25,14,07,9.30
2020,01,25,14,08,9.30
2020,01,25,14,09,9.40
2020,01,25,14,10,9.40
2020,01,25,14,11,9.40
2020,01,25,14,12,9.30
2020,01,25,14,13,9.30
2020,01,25,14,14,9.30
2020,01,25,14,15,9.30
2020,01,25,14,16,9.30
2020,01,25,14,17,9.30
2020,01,25,14,18,9.30
2020,01,25,14,19,9.30
2020,01,25,14,20,9.30
2020,01,25,14,21,9.30
2020,01,25,14,22,9.30
2020,01,25,14,23,9.30
2020,01,25,14,24,9.30
2020,01,25,14,25,9.30
2020,01,25,14,26,9.20
2020,01,25,14,27,9.20
2020,01,25,14,28,9.30
2020,01,25,14,29,9.20
2020,01,25,14,30,9.20
2020,01,25,14,31,9.20
2020,01,25,14,32,9.20
2020,01,25,14,33,9.20
2020,01,25,14,34,9.30
2020,01,25,14,35,9.30
2020,01,25,14,36,9.30
2020,01,25,14,37,9.40
2020,01,25,14,38,9.40
2020,01,25,14,39,9.40
2020,01,25,14,40,9.40
2020,01,25,14,41,9.40
2020,01,25,14,42,9.40
2020,01,25,14,43,9.50
2020,01,25,14,44,9.50
2020,01,25,14,45,9.50
2020,01,25,14,46,9.50
2020,01,25,14,47,9.50
2020,01,25,14,48,9.50
2020,01,25,14,49,9.50
2020,01,25,14,50,9.50
2020,01,25,14,51,9.50
2020,01,25,14,52,9.50
2020,01,25,14,53,9.50
2020,01,25,14,54,9.40
2020,01,25,14,55,9.30
2020,01,25,14,56,9.30
2020,01,25,14,57,9.20
2020,01,25,14,58,9.20
2020,01,25,14,59,9.20
2020,01,25,15,00,9.20
2020,01,25,15,01,9.20
2020,01,25,15,02,9.20
2020,01,25,15,03,9.20
2020,01,25,15,04,9.20
2020,01,25,15,05,9.20
2020,01,25,15,06,9.20
2020,01,25,15,07,9.20
2020,01,25,15,08,9.20
2020,01,25,15,09,9.20
2020,01,25,15,10,9.20
2020,01,25,15,11,9.20
2020,01,25,15,12,9.20
2020,01,25,15,13,9.20
2020,01,25,15,14,9.20
2020,01,25,15,15,9.10
2020,01,25,15,16,9.10
2020,01,25,15,17,9.10
2020,01,25,15,18,9.10
2020,01,25,15,19,9.10
2020,01,25,15,20,9.10
2020,01,25,15,21,9.10
2020,01,25,15,22,9.00
2020,01,25,15,23,9.00
2020,01,25,15,24,9.00
2020,01,25,15,25,9.00
2020,01,25,15,26,9.00
2020,01,25,15,27,9.00
2020,01,25,15,28,8.90
2020,01,25,15,29,8.90
2020,01,25,15,30,8.90
2020,01,25,15,31,8.90
2020,01,25,15,32,8.90
2020,01,25,15,33,8.80
2020,01,25,15,34,8.80
2020,01,25,15,35,8.80
2020,01,25,15,36,8.70
2020,01,25,15,37,8.70
2020,01,25,15,38,8.70
2020,01,25,15,39,8.70
2020,01,25,15,40,8.70
2020,01,25,15,41,8.70
2020,01,25,15,42,8.70
2020,01,25,15,43,8.70
2020,01,25,15,44,8.70
2020,01,25,15,45,8.70
2020,01,25,15,46,8.70
2020,01,25,15,47,8.70
2020,01,25,15,48,8.70
2020,01,25,15,49,8.70
2020,01,25,15,50,8.70
2020,01,25,15,51,8.70
2020,01,25,15,52,8.60
2020,01,25,15,53,8.60
2020,01,25,15,54,8.60
2020,01,25,15,55,8.60
2020,01,25,15,56,8.60
2020,01,25,15,57,8.60
2020,01,25,15,58,8.60
2020,01,25,15,59,8.60
2020,01,25,16,00,8.60
2020,01,25,16,01,8.50
2020,01,25,16,02,8.50
2020,01,25,16,03,8.50
2020,01,25,16,04,8.50
2020,01,25,16,05,8.50
2020,01,25,16,06,8.50
2020,01,25,16,07,8.50
2020,01,25,16,08,8.50
2020,01,25,16,09,8.40
2020,01,25,16,10,8.40
2020,01,25,16,11,8.40
2020,01,25,16,12,8.40
2020,01,25,16,13,8.40
2020,01,25,16,14,8.40
2020,01,25,16,15,8.40
2020,01,25,16,16,8.40
2020,01,25,16,17,8.40
2020,01,25,16,18,8.30
2020,01,25,16,19,8.30
2020,01,25,16,20,8.30
2020,01,25,16,21,8.30
2020,01,25,16,22,8.30
2020,01,25,16,23,8.20
2020,01,25,16,24,8.20
2020,01,25,16,25,8.20
2020,01,25,16,26,8.20
2020,01,25,16,27,8.20
2020,01,25,16,28,8.20
2020,01,25,16,29,8.20
2020,01,25,16,30,8.20
2020,01,25,16,31,8.20
2020,01,25,16,32,8.20
2020,01,25,16,33,8.20
2020,01,25,16,34,8.20
2020,01,25,16,35,8.20
2020,01,25,16,36,8.20
2020,01,25,16,37,8.20
2020,01,25,16,38,8.20
2020,01,25,16,39,8.20
2020,01,25,16,40,8.20
2020,01,25,16,41,8.20
2020,01,25,16,42,8.20
2020,01,25,16,43,8.20
2020,01,25,16,44,8.20
2020,01,25,16,45,8.20
2020,01,25,16,46,8.20
2020,01,25,16,47,8.10
2020,01,25,16,48,8.10
2020,01,25,16,49,8.10
2020,01,25,16,50,8.10
2020,01,25,16,51,8.10
2020,01,25,16,52,8.10
2020,01,25,16,53,8.10
2020,01,25,16,54,8.00
2020,01,25,16,55,8.00
2020,01,25,16,56,8.00
2020,01,25,16,57,8.00
2020,01,25,16,58,8.00
2020,01,25,16,59,8.00
2020,01,25,17,00,8.00
2020,01,25,17,01,8.00
2020,01,25,17,02,8.00
2020,01,25,17,03,8.00
2020,01,25,17,04,8.00
2020,01,25,17,05,8.00
2020,01,25,17,06,8.00
2020,01,25,17,07,8.00
2020,01,25,17,08,8.00
2020,01,25,17,09,8.00
2020,01,25,17,10,8.00
2020,01,25,17,11,8.00
2020,01,25,17,12,8.00
2020,01,25,17,13,8.00
2020,01,25,17,14,8.00
2020,01,25,17,15,8.00
2020,01,25,17,16,8.00
2020,01,25,17,17,8.00
2020,01,25,17,18,8.00
2020,01,25,17,19,8.00
2020,01,25,17,20,8.00
2020,01,25,17,21,8.00
2020,01,25,17,22,8.00
2020,01,25,17,23,8.00
2020,01,25,17,24,8.00
2020,01,25,17,25,8.00
2020,01,25,17,26,8.00
2020,01,25,17,27,8.00
2020,01,25,17,28,8.00
2020,01,25,17,29,8.00
2020,01,25,17,30,8.00
2020,01,25,17,31,8.00
2020,01,25,17,32,8.00
2020,01,25,17,33,8.00
2020,01,25,17,34,8.00
2020,01,25,17,35,8.00
2020,01,25,17,36,8.00
2020,01,25,17,37,8.00
2020,01,25,17,38,8.00
2020,01,25,17,39,8.00
2020,01,25,17,40,8.00
2020,01,25,17,41,8.00
2020,01,25,17,42,8.00
2020,01,25,17,43,8.00
2020,01,25,17,44,8.00
2020,01,25,17,45,8.00
2020,01,25,17,46,8.00
2020,01,25,17,47,8.00
2020,01,25,17,48,8.00
2020,01,25,17,49,8.00
2020,01,25,17,50,8.00
2020,01,25,17,51,8.00
2020,01,25,17,52,8.00
2020,01,25,17,53,8.00
2020,01,25,17,54,8.00
2020,01,25,17,55,8.00
2020,01,25,17,56,8.00
2020,01,25,17,57,8.00
2020,01,25,17,58,8.00
2020,01,25,17,59,8.00
2020,01,25,18,00,8.00
2020,01,25,18,01,8.00
2020,01,25,18,02,8.00
2020,01,25,18,03,8.00
2020,01,25,18,04,8.00
2020,01,25,18,05,8.00
2020,01,25,18,06,8.00
2020,01,25,18,07,8.00
2020,01,25,18,08,8.00
2020,01,25,18,09,8.00
2020,01,25,18,10,8.00
2020,01,25,18,11,8.00
2020,01,25,18,12,8.00
2020,01,25,18,13,8.00
2020,01,25,18,14,8.00
2020,01,25,18,15,8.00
2020,01,25,18,16,8.00
2020,01,25,18,17,8.00
2020,01,25,18,18,8.00
2020,01,25,18,19,8.00
2020,01,25,18,20,8.00
2020,01,25,18,21,8.00
2020,01,25,18,22,8.00
2020,01,25,18,23,8.00
2020,01,25,18,24,8.00
2020,01,25,18,25,8.00
2020,01,25,18,26,8.00
2020,01,25,18,27,8.00
2020,01,25,18,28,8.00
2020,01,25,18,29,8.00
2020,01,25,18,30,8.00
2020,01,25,18,31,8.00
2020,01,25,18,32,8.00
2020,01,25,18,33,8.00
2020,01,25,18,34,8.00
2020,01,25,18,35,8.00
2020,01,25,18,36,8.00
2020,01,25,18,37,8.00
2020,01,25,18,38,8.00
2020,01,25,18,39,8.00
2020,01,25,18,40,8.00
2020,01,25,18,41,8.00
2020,01,25,18,42,8.00
2020,01,25,18,43,8.00
2020,01,25,18,44,8.00
2020,01,25,18,45,8.00
2020,01,25,18,46,8.00
2020,01,25,18,47,8.00
2020,01,25,18,48,8.00
2020,01,25,18,49,8.00
2020,01,25,18,50,8.00
2020,01,25,18,51,8.00
2020,01,25,18,52,8.00
2020,01,25,18,53,8.00
2020,01,25,18,54,8.00
2020,01,25,18,55,8.00
2020,01,25,18,56,8.00
2020,01,25,18,57,8.00
2020,01,25,18,58,8.00
2020,01,25,18,59,8.00
2020,01,25,19,00,8.00
2020,01,25,19,01,8.00
2020,01,25,19,02,8.00
2020,01,25,19,03,8.00
2020,01,25,19,04,8.00
2020,01,25,19,05,8.00
2020,01,25,19,06,8.00
2020,01,25,19,07,8.00
2020,01,25,19,08,8.00
2020,01,25,19,09,8.00
2020,01,25,19,10,8.00
2020,01,25,19,11,8.00
2020,01,25,19,12,8.00
2020,01,25,19,13,8.00
2020,01,25,19,14,8.00
2020,01,25,19,15,8.00
2020,01,25,19,16,8.00
2020,01,25,19,17,8.00
2020,01,25,19,18,8.00
2020,01,25,19,19,8.00
2020,01,25,19,20,8.00
2020,01,25,19,21,8.00
2020,01,25,19,22,8.00
2020,01,25,19,23,8.00
2020,01,25,19,24,8.00
2020,01,25,19,25,8.00
2020,01,25,19,26,8.00
2020,01,25,19,27,8.00
2020,01,25,19,28,8.00
2020,01,25,19,29,8.00
2020,01,25,19,30,8.00
2020,01,25,19,31,8.00
2020,01,25,19,32,8.00
2020,01,25,19,33,8.00
2020,01,25,19,34,8.00
2020,01,25,19,35,8.00
2020,01,25,19,36,8.00
2020,01,25,19,37,8.00
2020,01,25,19,38,8.00
2020,01,25,19,39,8.00
2020,01,25,19,40,8.00
2020,01,25,19,41,8.00
2020,01,25,19,42,8.00
2020,01,25,19,43,8.00
2020,01,25,19,44,8.00
2020,01,25,19,45,8.00
2020,01,25,19,46,8.00
2020,01,25,19,47,7.90
2020,01,25,19,48,7.90
2020,01,25,19,49,7.90
2020,01,25,19,50,7.90
2020,01,25,19,51,7.90
2020,01,25,19,52,7.90
2020,01,25,19,53,7.90
2020,01,25,19,54,7.90
2020,01,25,19,55,7.90
2020,01,25,19,56,7.90
2020,01,25,19,57,7.90
2020,01,25,19,58,7.90
2020,01,25,19,59,7.90
2020,01,25,20,00,7.90
2020,01,25,20,01,7.90
2020,01,25,20,02,7.90
2020,01,25,20,03,7.90
2020,01,25,20,04,7.90
2020,01,25,20,05,7.90
2020,01,25,20,06,7.90
2020,01,25,20,07,7.90
2020,01,25,20,08,7.90
2020,01,25,20,09,7.90
2020,01,25,20,10,7.90
2020,01,25,20,11,7.90
2020,01,25,20,12,7.90
2020,01,25,20,13,7.90
2020,01,25,20,14,7.90
2020,01,25,20,15,7.80
2020,01,25,20,16,7.80
2020,01,25,20,17,7.80
2020,01,25,20,18,7.80
2020,01,25,20,19,7.80
2020,01,25,20,20,7.80
2020,01,25,20,21,7.80
2020,01,25,20,22,7.80
2020,01,25,20,23,7.80
2020,01,25,20,24,7.80
2020,01,25,20,25,7.80
2020,01,25,20,26,7.80
2020,01,25,20,27,7.80
2020,01,25,20,28,7.80
2020,01,25,20,29,7.80
2020,01,25,20,30,7.80
2020,01,25,20,31,7.80
2020,01,25,20,32,7.80
2020,01,25,20,33,7.80
2020,01,25,20,34,7.80
2020,01,25,20,35,7.80
2020,01,25,20,36,7.80
2020,01,25,20,37,7.80
2020,01,25,20,38,7.80
2020,01,25,20,39,7.80
2020,01,25,20,40,7.80
2020,01,25,20,41,7.80
2020,01,25,20,42,7.80
2020,01,25,20,43,7.80
2020,01,25,20,44,7.80
2020,01,25,20,45,7.80
2020,01,25,20,46,7.80
2020,01,25,20,47,7.80
2020,01,25,20,48,7.80
2020,01,25,20,49,7.80
2020,01,25,20,50,7.80
2020,01,25,20,51,7.80
2020,01,25,20,52,7.80
2020,01,25,20,53,7.80
2020,01,25,20,54,7.80
2020,01,25,20,55,7.90
2020,01,25,20,56,7.90
2020,01,25,20,57,7.90
2020,01,25,20,58,7.90
2020,01,25,20,59,7.90
2020,01,25,21,00,7.90
2020,01,25,21,01,7.90
2020,01,25,21,02,7.90
2020,01,25,21,03,7.90
2020,01,25,21,04,7.90
2020,01,25,21,05,7.90
2020,01,25,21,06,7.90
2020,01,25,21,07,7.80
2020,01,25,21,08,7.80
2020,01,25,21,09,7.80
2020,01,25,21,10,7.80
2020,01,25,21,11,7.80
2020,01,25,21,12,7.80
2020,01,25,21,13,7.80
2020,01,25,21,14,7.80
2020,01,25,21,15,7.80
2020,01,25,21,16,7.80
2020,01,25,21,17,7.80
2020,01,25,21,18,7.80
2020,01,25,21,19,7.80
2020,01,25,21,20,7.80
2020,01,25,21,21,7.80
2020,01,25,21,22,7.80
2020,01,25,21,23,7.80
2020,01,25,21,24,7.80
2020,01,25,21,25,7.80
2020,01,25,21,26,7.80
2020,01,25,21,27,7.80
2020,01,25,21,28,7.80
2020,01,25,21,29,7.80
2020,01,25,21,30,7.80
2020,01,25,21,31,7.80
2020,01,25,21,32,7.80
2020,01,25,21,33,7.80
2020,01,25,21,34,7.80
2020,01,25,21,35,7.80
2020,01,25,21,36,7.80
2020,01,25,21,37,7.80
2020,01,25,21,38,7.80
2020,01,25,21,39,7.80
2020,01,25,21,40,7.80
2020,01,25,21,41,7.80
2020,01,25,21,42,7.80
2020,01,25,21,43,7.80
2020,01,25,21,44,7.80
2020,01,25,21,45,7.80
2020,01,25,21,46,7.80
2020,01,25,21,47,7.80
2020,01,25,21,48,7.80
2020,01,25,21,49,7.80
2020,01,25,21,50,7.80
2020,01,25,21,51,7.80
2020,01,25,21,52,7.80
2020,01,25,21,53,7.80
2020,01,25,21,54,7.80
2020,01,25,21,55,7.80
2020,01,25,21,56,7.80
2020,01,25,21,57,7.80
